Wind_Speed
57 57 58 60 60 61 61 61 61 61 59 58 58 57 58 59 61 62 64 65 66 67 68 68 68 68 68 69 70 71 71 71 71 70 70 70 69 69 69 69 68 68
57 58 59 60 60 61 61 62 62 61 60 59 58 58 59 60 61 62 64 65 66 67 69 69 69 69 69 70 71 71 71 71 71 71 71 70 69 69 69 69 69 69
57 58 59 59 60 61 62 62 63 63 62 61 61 60 60 61 62 63 65 66 67 68 69 70 70 70 71 71 71 72 71 71 71 71 71 70 69 69 69 69 69 69
57 58 58 59 60 61 62 63 63 64 64 64 64 63 63 64 64 65 66 67 68 69 69 70 71 71 71 70 70 70 70 70 70 70 70 70 70 69 69 69 70 70
56 57 58 58 59 61 62 63 63 64 65 65 66 66 66 66 66 66 67 67 68 69 69 69 70 70 70 69 69 69 70 70 70 70 70 70 70 70 70 70 70 70
53 54 55 56 57 58 59 60 61 62 62 63 64 64 64 64 65 65 66 67 67 68 68 68 68 69 69 69 69 69 69 69 69 69 69 69 69 70 69 69 69 69
50 51 52 53 54 55 56 57 58 59 60 61 61 62 62 63 63 64 65 66 67 67 68 68 68 68 68 69 69 69 69 69 68 68 68 68 69 69 68 68 68 69
51 52 53 54 54 55 55 56 57 58 59 60 61 62 62 62 63 64 65 66 67 67 68 68 68 68 68 69 69 69 69 69 69 68 68 68 68 68 68 68 68 68
53 54 54 55 56 56 57 57 58 59 60 60 61 62 63 63 64 65 66 67 67 68 68 69 69 69 69 69 69 69 69 69 69 69 69 69 68 68 67 67 67 67
54 55 55 56 56 57 58 58 59 60 61 62 63 63 64 65 65 66 67 68 68 69 69 70 70 70 70 69 70 70 70 70 70 70 69 69 68 68 68 68 67 67
55 55 56 57 58 59 59 60 61 63 64 64 65 66 67 67 67 68 69 69 69 70 70 70 70 70 70 70 70 71 71 71 71 71 70 70 69 69 69 68 68 67
56 57 58 59 60 61 62 63 64 65 66 67 68 69 69 70 70 70 70 70 70 70 70 70 70 70 70 70 70 71 71 71 71 71 71 70 70 70 70 69 68 68
59 61 62 63 64 65 65 66 67 68 68 69 70 70 71 71 71 72 72 71 71 71 70 69 69 69 69 69 69 69 70 70 70 70 70 70 70 70 70 69 69 69
63 65 66 67 68 68 69 69 70 70 71 71 71 71 71 72 72 72 72 72 72 71 70 69 69 69 68 68 68 68 68 68 68 69 69 69 69 69 69 69 69 69
67 69 70 70 71 72 72 72 72 72 72 72 72 72 72 72 72 73 73 73 73 72 71 70 70 69 69 68 68 68 68 67 67 67 67 67 67 67 68 68 68 68
72 73 73 73 74 74 74 74 74 73 73 72 72 72 72 73 73 74 74 74 73 73 72 72 71 70 70 70 69 69 69 68 68 67 67 67 66 66 66 67 67 67
77 77 77 77 76 76 75 75 74 74 74 74 73 73 73 73 74 74 74 74 74 73 73 73 72 72 72 72 72 71 70 70 69 68 68 68 67 67 67 67 67 67
79 79 79 79 79 78 77 76 76 76 76 76 76 75 75 75 75 75 75 75 75 74 74 73 73 73 73 74 74 73 72 71 71 70 70 70 70 70 69 69 69 68
80 80 80 80 79 79 79 79 79 79 78 78 78 78 78 78 78 78 78 78 78 77 76 76 75 75 76 76 76 76 75 75 75 74 74 74 75 75 75 74 72 71
79 79 79 79 79 80 80 81 81 81 81 81 81 81 80 80 80 80 81 81 81 81 80 80 79 79 80 80 80 80 80 80 80 80 81 81 81 80 79 78 77 75
78 78 78 78 78 79 80 80 81 82 82 83 83 83 83 83 82 82 82 83 83 83 83 82 81 82 82 83 84 85 86 86 86 86 86 85 83 80 79 79 78 77
77 77 77 78 79 79 80 81 82 83 83 84 84 85 85 85 85 85 85 85 85 86 86 85 84 84 84 84 85 87 88 89 89 88 87 85 82 80 78 78 78 77
79 79 80 80 80 80 81 81 82 82 83 84 84 84 84 85 85 85 85 86 86 86 87 86 86 86 87 87 87 88 88 89 89 87 85 83 82 80 79 78 77 77
80 80 80 80 80 80 80 80 80 81 82 83 84 84 84 85 86 86 86 86 86 87 87 87 87 87 88 88 88 89 90 90 89 88 86 85 83 82 80 79 77 76
79 79 79 79 79 80 80 81 81 82 83 84 85 85 86 86 87 88 87 88 88 89 89 89 89 89 90 90 89 90 90 90 90 89 87 86 84 83 81 80 78 76
79 79 80 80 81 81 82 83 83 84 85 85 86 87 87 88 89 89 90 90 90 91 91 91 92 92 92 91 91 90 91 90 90 89 87 86 85 83 82 80 79 77
Wind_Direction
274 273 274 274 275 276 278 279 280 280 279 278 276 275 273 272 272 272 272 273 274 275 275 276 277 277 278 278 279 279 279 280 281 281 281 281 281 281 281 281 281 281
272 272 272 273 274 275 276 277 277 276 276 276 275 274 273 273 273 273 273 274 275 276 276 277 278 278 279 279 280 280 280 281 281 281 281 281 281 281 281 281 281 280
270 270 271 271 272 273 274 274 274 274 274 275 275 275 274 274 275 275 276 276 277 277 278 279 279 280 280 280 281 281 281 281 281 281 281 281 281 281 281 281 281 280
270 271 271 271 272 272 273 273 274 274 275 276 276 276 276 277 277 277 277 277 278 278 279 279 280 280 281 281 281 281 281 281 281 281 281 281 281 281 281 281 281 281
274 274 274 274 274 274 274 274 275 275 276 276 277 277 278 278 278 278 278 279 279 279 279 280 280 280 280 281 281 281 281 281 281 281 281 281 281 281 281 281 281 281
277 276 276 276 275 275 276 276 277 277 277 277 278 278 278 278 279 279 279 279 280 280 280 280 280 280 280 280 280 280 280 280 280 281 281 281 281 281 281 281 281 281
276 276 276 276 276 276 277 277 277 277 278 277 278 278 278 278 279 279 279 280 280 280 280 280 280 280 280 280 280 280 280 280 280 281 281 281 281 281 281 281 281 280
276 277 277 277 277 277 277 277 278 278 278 278 278 279 279 279 279 279 279 280 280 280 280 280 280 280 279 280 280 280 280 280 280 280 280 280 280 280 280 280 280 279
279 279 279 280 280 280 280 280 280 280 280 280 280 280 281 280 280 280 280 280 280 280 279 279 279 279 279 279 279 279 279 279 279 279 278 278 278 278 278 278 278 278
281 281 281 281 282 282 282 282 282 282 282 282 282 282 282 281 281 281 280 280 280 280 280 280 279 279 279 279 279 279 279 278 278 278 277 277 277 277 277 277 277 277
281 281 282 282 283 283 283 283 283 283 283 283 282 282 282 281 281 281 281 281 281 281 281 281 281 281 280 280 280 279 278 278 277 277 277 277 276 276 276 276 276 276
281 281 282 282 282 282 282 282 283 283 282 282 282 282 282 282 281 281 281 280 281 281 281 281 281 281 281 280 280 279 279 278 278 277 277 276 276 276 276 276 276 276
283 283 283 283 283 283 283 283 283 283 283 283 282 282 282 282 281 281 280 280 280 280 281 280 280 280 280 279 279 279 279 278 278 277 277 277 276 276 276 276 276 276
286 287 286 286 286 285 285 285 285 284 284 284 283 283 283 282 282 281 281 280 280 280 280 279 279 279 279 278 277 277 277 277 277 277 277 277 277 277 277 276 276 276
286 287 288 287 287 286 286 285 285 284 284 283 283 283 283 282 282 282 281 281 280 279 279 278 278 278 277 277 276 275 275 275 275 276 276 277 277 277 277 277 277 277
286 287 287 287 287 286 286 285 284 283 283 283 283 282 282 282 282 281 281 280 280 279 278 277 277 276 275 275 274 274 274 274 274 274 275 275 276 277 277 277 277 277
287 287 287 286 286 285 284 283 283 283 283 282 282 282 282 281 281 281 281 280 279 279 278 277 276 275 274 273 273 272 272 272 273 273 273 274 275 275 276 276 276 276
287 287 286 286 285 284 283 282 282 282 282 282 282 281 281 280 280 280 280 279 279 279 278 277 276 275 274 273 272 272 271 271 272 273 274 275 275 275 275 275 275 275
285 285 285 285 284 284 283 283 282 282 281 281 280 280 280 279 279 279 278 278 277 277 277 277 276 275 273 273 272 271 271 271 272 273 275 276 276 276 274 274 274 274
284 284 284 283 283 283 283 283 283 283 282 282 281 280 280 279 279 279 278 278 277 277 276 275 275 274 273 273 272 272 272 272 272 273 275 277 277 276 274 273 273 273
283 283 283 283 283 283 283 283 283 282 282 282 282 281 281 280 280 279 279 278 278 277 276 276 275 274 273 272 272 272 272 273 273 274 276 277 277 276 274 273 272 272
282 282 282 282 281 281 281 281 281 281 281 281 281 281 280 280 280 279 279 279 278 278 278 277 277 276 275 274 273 273 273 273 274 274 275 276 276 275 274 273 272 271
283 283 283 282 282 282 282 281 281 281 281 281 281 281 281 281 280 280 280 279 279 279 279 278 278 277 276 276 275 275 274 274 274 274 274 275 275 275 274 273 272 271
286 285 285 285 284 284 284 283 283 283 283 283 283 282 282 282 281 281 281 280 280 279 279 279 278 277 277 276 276 275 274 274 274 274 273 273 273 273 273 272 271 270
287 287 286 286 286 286 285 285 285 284 284 283 283 283 282 282 282 281 281 280 280 279 279 278 278 277 276 276 275 274 274 273 273 272 272 272 271 271 271 270 270 269
288 288 288 287 287 287 286 286 285 285 284 284 284 283 283 282 282 281 281 280 280 279 278 278 277 276 275 275 274 273 272 272 271 271 271 270 269 269 268 268 268 267
Height
5591 5590 5588 5587 5586 5585 5585 5584 5583 5583 5582 5581 5580 5580 5579 5577 5576 5574 5572 5571 5570 5569 5568 5567 5567 5566 5564 5562 5561 5559 5559 5558 5556 5555 5554 5553 5551 5550 5548 5548 5547 5546
5583 5582 5581 5579 5578 5578 5577 5576 5575 5575 5574 5573 5572 5572 5570 5569 5568 5566 5564 5562 5562 5561 5559 5558 5558 5557 5555 5554 5552 5551 5550 5549 5547 5546 5545 5543 5542 5541 5539 5538 5537 5537
5575 5574 5573 5572 5571 5570 5569 5567 5567 5567 5566 5565 5564 5563 5562 5562 5560 5558 5556 5554 5553 5552 5550 5550 5549 5548 5546 5545 5543 5542 5541 5540 5538 5537 5535 5534 5533 5532 5530 5528 5527 5527
5568 5567 5566 5565 5564 5562 5561 5560 5559 5558 5557 5557 5556 5555 5554 5554 5552 5550 5547 5545 5544 5543 5542 5541 5540 5539 5537 5536 5534 5533 5532 5531 5529 5527 5526 5525 5524 5523 5521 5519 5518 5517
5561 5560 5559 5558 5556 5555 5553 5553 5552 5550 5549 5549 5547 5546 5546 5545 5544 5541 5538 5537 5535 5534 5533 5533 5531 5530 5528 5526 5525 5524 5522 5521 5520 5518 5517 5515 5514 5513 5512 5510 5509 5508
5553 5552 5551 5549 5548 5547 5546 5545 5544 5542 5541 5540 5539 5538 5537 5536 5535 5532 5530 5528 5527 5525 5524 5523 5522 5521 5519 5517 5516 5515 5513 5512 5510 5509 5507 5506 5504 5504 5503 5501 5499 5498
5544 5543 5541 5540 5540 5539 5538 5537 5535 5534 5533 5531 5530 5529 5528 5528 5526 5524 5521 5520 5518 5517 5515 5514 5513 5511 5510 5508 5506 5505 5503 5502 5501 5500 5498 5497 5495 5494 5494 5492 5490 5489
5536 5534 5533 5532 5531 5531 5529 5528 5526 5525 5523 5522 5521 5520 5519 5519 5517 5515 5513 5511 5509 5508 5506 5505 5504 5502 5500 5499 5497 5495 5494 5492 5491 5490 5489 5487 5486 5485 5484 5483 5481 5480
5529 5527 5525 5524 5523 5522 5521 5519 5518 5516 5514 5513 5512 5511 5510 5509 5508 5506 5504 5501 5500 5499 5497 5496 5495 5493 5491 5490 5488 5486 5484 5483 5482 5481 5479 5478 5476 5475 5475 5473 5472 5471
5521 5519 5518 5517 5516 5514 5513 5511 5509 5508 5506 5504 5503 5501 5500 5500 5499 5497 5494 5492 5491 5489 5488 5486 5485 5483 5482 5480 5478 5476 5474 5473 5472 5471 5470 5468 5467 5466 5465 5464 5463 5461
5513 5512 5511 5510 5508 5506 5504 5502 5501 5499 5497 5495 5493 5492 5490 5489 5489 5487 5485 5483 5481 5479 5478 5477 5476 5474 5472 5471 5469 5467 5465 5463 5462 5461 5460 5459 5457 5456 5455 5454 5453 5452
5505 5504 5503 5501 5499 5498 5496 5494 5491 5489 5487 5486 5484 5482 5481 5479 5478 5476 5475 5473 5471 5470 5468 5467 5465 5464 5463 5461 5459 5457 5455 5453 5452 5451 5450 5449 5447 5446 5445 5444 5443 5442
5497 5495 5493 5492 5490 5488 5486 5484 5482 5479 5477 5476 5473 5472 5471 5469 5467 5466 5464 5463 5462 5460 5458 5456 5455 5454 5453 5451 5449 5447 5445 5443 5441 5440 5440 5439 5438 5436 5435 5435 5434 5433
5487 5485 5483 5481 5480 5478 5476 5473 5471 5469 5466 5464 5463 5462 5460 5457 5456 5455 5453 5453 5452 5450 5448 5446 5445 5444 5443 5441 5439 5436 5434 5432 5431 5430 5430 5429 5428 5427 5426 5425 5425 5423
5477 5475 5473 5471 5468 5467 5465 5462 5460 5458 5455 5454 5452 5450 5449 5446 5444 5443 5442 5442 5440 5439 5437 5435 5434 5434 5432 5430 5428 5426 5424 5422 5421 5420 5420 5419 5419 5418 5417 5416 5415 5414
5466 5464 5462 5460 5458 5456 5453 5451 5449 5447 5445 5443 5441 5439 5437 5435 5433 5432 5431 5430 5429 5427 5426 5425 5424 5423 5421 5419 5417 5415 5413 5411 5410 5410 5409 5409 5409 5409 5408 5407 5406 5405
5455 5453 5451 5449 5447 5445 5443 5440 5438 5436 5434 5432 5430 5428 5426 5424 5422 5421 5420 5418 5417 5416 5415 5414 5414 5412 5410 5408 5406 5405 5403 5401 5400 5399 5399 5399 5399 5399 5398 5397 5396 5395
5443 5441 5439 5437 5435 5433 5431 5429 5427 5425 5423 5421 5419 5417 5415 5413 5412 5411 5409 5407 5405 5404 5404 5403 5402 5401 5399 5397 5395 5394 5392 5389 5388 5388 5388 5388 5388 5388 5387 5386 5385 5384
5433 5431 5429 5426 5423 5421 5419 5417 5415 5413 5412 5409 5407 5406 5403 5402 5401 5399 5398 5396 5393 5393 5392 5391 5390 5388 5386 5385 5383 5382 5380 5378 5377 5376 5376 5377 5377 5376 5376 5375 5375 5373
5422 5420 5418 5415 5412 5410 5407 5405 5402 5400 5399 5396 5394 5393 5392 5390 5389 5387 5386 5383 5381 5380 5379 5379 5378 5376 5374 5372 5371 5369 5366 5365 5364 5364 5364 5364 5365 5364 5363 5363 5363 5361
5411 5409 5406 5404 5401 5398 5396 5393 5390 5388 5386 5383 5381 5380 5378 5377 5376 5374 5372 5371 5368 5367 5365 5366 5366 5363 5361 5359 5357 5355 5353 5350 5351 5352 5352 5351 5352 5351 5350 5350 5350 5349
5399 5397 5395 5392 5390 5387 5384 5382 5379 5376 5373 5370 5368 5367 5365 5363 5362 5360 5359 5357 5355 5353 5351 5352 5352 5349 5347 5346 5344 5342 5339 5336 5337 5339 5339 5339 5339 5338 5338 5337 5337 5336
5386 5384 5382 5380 5377 5375 5372 5370 5366 5364 5361 5357 5354 5354 5352 5350 5348 5346 5345 5343 5342 5340 5337 5337 5338 5335 5332 5331 5330 5327 5325 5322 5322 5324 5326 5327 5327 5326 5325 5325 5324 5324
5373 5370 5368 5366 5364 5361 5359 5356 5354 5351 5348 5344 5341 5340 5339 5336 5333 5332 5332 5330 5327 5326 5324 5322 5322 5321 5317 5316 5316 5313 5309 5308 5308 5309 5312 5314 5314 5313 5312 5312 5312 5312
5360 5357 5355 5353 5351 5348 5345 5343 5340 5337 5334 5331 5328 5326 5324 5323 5320 5318 5317 5316 5313 5311 5310 5308 5307 5306 5303 5301 5301 5298 5294 5293 5293 5294 5297 5299 5300 5300 5300 5300 5299 5299
5347 5344 5342 5339 5337 5335 5332 5329 5326 5323 5320 5317 5314 5312 5310 5308 5306 5303 5302 5302 5299 5296 5295 5294 5292 5290 5288 5286 5285 5283 5280 5277 5277 5279 5282 5284 5284 5286 5287 5287 5287 5287